RYR517J ELLX-EIDW

Flight info

Callsign RYR517J
Flight time 1h 27m
Altitude 36000
Route LNO N852 TERLA L608 BUB/N0439F380 L608 DENUT L610 LAM L10 BPK UN601 LESTA UP6 RODOL UL28 AGLIL/N0425F360 UL28 PENIL/N0413F340 UL28 DANDI/N0332F180 UL28 LELDO M145 BAGSO BAGSO3R
Aircraft B738/M-SDE3FGIJ1LRWY/SB1

Departure

Time 2026-05-05 07:49
Airport Luxembourg-Findel International Airport (ELLX)

Arrival

Time 2026-05-05 09:16
Airport Dublin Airport (EIDW)
Time Latitude Longitude Altitude Speed Heading
2026-05-05 07:22 49.63195 6.21639 1229 ft 0 kts 239°
2026-05-05 07:43 49.63193 6.21633 1229 ft 2 kts 239°
2026-05-05 07:43 49.63179 6.21600 1229 ft 5 kts 227°
2026-05-05 07:43 49.63145 6.21605 1229 ft 6 kts 156°
2026-05-05 07:43 49.63101 6.21644 1226 ft 10 kts 140°
2026-05-05 07:44 49.63108 6.21747 1225 ft 10 kts 64°
2026-05-05 07:44 49.63140 6.21846 1225 ft 10 kts 65°
2026-05-05 07:44 49.63169 6.21943 1227 ft 10 kts 64°
2026-05-05 07:44 49.63198 6.22038 1227 ft 10 kts 64°
2026-05-05 07:45 49.63228 6.22135 1227 ft 11 kts 65°
2026-05-05 07:45 49.63266 6.22257 1223 ft 14 kts 64°
2026-05-05 07:45 49.63314 6.22413 1218 ft 18 kts 62°
2026-05-05 07:45 49.63380 6.22598 1214 ft 20 kts 60°
2026-05-05 07:46 49.63445 6.22776 1214 ft 18 kts 60°
2026-05-05 07:46 49.63506 6.22940 1213 ft 17 kts 60°
2026-05-05 07:46 49.63565 6.23099 1212 ft 17 kts 60°
2026-05-05 07:46 49.63622 6.23249 1212 ft 16 kts 59°
2026-05-05 07:47 49.63668 6.23400 1210 ft 15 kts 92°
2026-05-05 07:47 49.63600 6.23488 1213 ft 13 kts 149°
2026-05-05 07:47 49.63530 6.23520 1215 ft 10 kts 210°
2026-05-05 07:47 49.63491 6.23431 1215 ft 11 kts 240°
2026-05-05 07:48 49.63403 6.23196 1212 ft 55 kts 240°
2026-05-05 07:48 49.63092 6.22360 1212 ft 122 kts 240°
2026-05-05 07:48 49.62569 6.20976 1253 ft 174 kts 239°
2026-05-05 07:48 49.61935 6.19231 1744 ft 188 kts 239°
2026-05-05 07:49 49.61292 6.17530 2730 ft 182 kts 238°
2026-05-05 07:49 49.60625 6.15797 3325 ft 199 kts 238°
2026-05-05 07:49 49.59894 6.13869 3681 ft 218 kts 238°
2026-05-05 07:49 49.59104 6.11721 3970 ft 239 kts 239°
2026-05-05 07:50 49.58241 6.09373 4270 ft 262 kts 238°
2026-05-05 07:50 49.57327 6.06904 5066 ft 266 kts 238°
2026-05-05 07:50 49.56592 6.04285 5966 ft 270 kts 259°
2026-05-05 07:50 49.56715 6.01399 6806 ft 275 kts 287°
2026-05-05 07:51 49.57677 5.98889 7607 ft 281 kts 313°
2026-05-05 07:51 49.59342 5.97214 8412 ft 288 kts 340°
2026-05-05 07:51 49.61288 5.96439 9233 ft 291 kts 337°
2026-05-05 07:51 49.63014 5.94830 9973 ft 292 kts 320°
2026-05-05 07:52 49.64656 5.92868 10382 ft 310 kts 320°
2026-05-05 07:52 49.66438 5.90767 10567 ft 334 kts 321°
2026-05-05 07:52 49.68344 5.88579 11009 ft 347 kts 322°
2026-05-05 07:52 49.70315 5.86360 11697 ft 352 kts 322°
2026-05-05 07:53 49.72198 5.83900 12418 ft 356 kts 316°
2026-05-05 07:53 49.73970 5.81275 13171 ft 359 kts 314°
2026-05-05 07:53 49.75776 5.78496 13868 ft 364 kts 313°
2026-05-05 07:53 49.77551 5.75747 14506 ft 368 kts 314°
2026-05-05 07:54 49.79373 5.72940 15186 ft 371 kts 314°
2026-05-05 07:54 49.81215 5.70118 15852 ft 375 kts 314°
2026-05-05 07:54 49.83081 5.67279 16505 ft 378 kts 314°
2026-05-05 07:54 49.84966 5.64420 17186 ft 380 kts 314°
2026-05-05 07:55 49.86865 5.61547 17831 ft 384 kts 315°
2026-05-05 07:55 49.88788 5.58638 18400 ft 388 kts 315°
2026-05-05 07:55 49.90728 5.55704 18934 ft 392 kts 314°
2026-05-05 07:55 49.92686 5.52742 19483 ft 395 kts 314°
2026-05-05 07:56 49.94657 5.49755 20025 ft 398 kts 314°
2026-05-05 07:56 49.96646 5.46738 20555 ft 401 kts 314°
2026-05-05 07:56 49.98649 5.43696 21071 ft 405 kts 314°
2026-05-05 07:56 50.00673 5.40619 21572 ft 409 kts 314°
2026-05-05 07:57 50.02711 5.37516 22085 ft 412 kts 314°
2026-05-05 07:57 50.04764 5.34387 22589 ft 415 kts 314°
2026-05-05 07:57 50.06833 5.31229 23074 ft 418 kts 314°
2026-05-05 07:57 50.08920 5.28040 23528 ft 422 kts 314°
2026-05-05 07:58 50.11021 5.24825 23932 ft 425 kts 314°
2026-05-05 07:58 50.13132 5.21591 24375 ft 426 kts 314°
2026-05-05 07:58 50.15252 5.18338 24807 ft 428 kts 314°
2026-05-05 07:58 50.17379 5.15070 25214 ft 431 kts 313°
2026-05-05 07:59 50.19519 5.11779 25607 ft 433 kts 313°
2026-05-05 07:59 50.21669 5.08466 26008 ft 436 kts 313°
2026-05-05 07:59 50.23830 5.05132 26408 ft 438 kts 313°
2026-05-05 07:59 50.25999 5.01783 26806 ft 439 kts 313°
2026-05-05 08:00 50.28179 4.98412 27183 ft 441 kts 313°
2026-05-05 08:00 50.30364 4.95027 27536 ft 444 kts 313°
2026-05-05 08:00 50.32531 4.91666 27952 ft 444 kts 312°
2026-05-05 08:00 50.34748 4.88226 28488 ft 442 kts 312°
2026-05-05 08:01 50.36904 4.84874 28828 ft 444 kts 311°
2026-05-05 08:01 50.39107 4.81441 29103 ft 448 kts 311°
2026-05-05 08:01 50.41323 4.77984 29384 ft 451 kts 311°
2026-05-05 08:01 50.43545 4.74513 29721 ft 452 kts 311°
2026-05-05 08:02 50.45775 4.71026 30044 ft 453 kts 311°
2026-05-05 08:02 50.48009 4.67529 30364 ft 454 kts 311°
2026-05-05 08:02 50.50241 4.64030 30707 ft 453 kts 310°
2026-05-05 08:02 50.52468 4.60534 31102 ft 452 kts 311°
2026-05-05 08:03 50.54683 4.57052 31490 ft 450 kts 311°
2026-05-05 08:03 50.56896 4.53568 31804 ft 450 kts 310°
2026-05-05 08:03 50.59101 4.50091 32173 ft 448 kts 310°
2026-05-05 08:03 50.61301 4.46618 32505 ft 448 kts 310°
2026-05-05 08:04 50.63500 4.43140 32796 ft 448 kts 310°
2026-05-05 08:04 50.65699 4.39655 33081 ft 448 kts 310°
2026-05-05 08:04 50.67895 4.36173 33395 ft 448 kts 310°
2026-05-05 08:04 50.70088 4.32690 33710 ft 447 kts 309°
2026-05-05 08:05 50.72276 4.29210 33988 ft 447 kts 309°
2026-05-05 08:05 50.74464 4.25725 34236 ft 446 kts 309°
2026-05-05 08:05 50.76647 4.22245 34487 ft 446 kts 310°
2026-05-05 08:05 50.78825 4.18766 34723 ft 446 kts 310°
2026-05-05 08:06 50.81004 4.15281 34966 ft 445 kts 309°
2026-05-05 08:06 50.83175 4.11804 35273 ft 443 kts 310°
2026-05-05 08:06 50.85337 4.08338 35531 ft 442 kts 310°
2026-05-05 08:06 50.87495 4.04870 35724 ft 443 kts 310°
2026-05-05 08:07 50.89656 4.01393 35896 ft 443 kts 310°
2026-05-05 08:07 50.91826 3.97896 35916 ft 447 kts 310°
2026-05-05 08:07 50.96182 3.90863 35934 ft 446 kts 310°
2026-05-05 08:08 51.00504 3.83872 35926 ft 441 kts 310°
2026-05-05 08:08 51.04779 3.76933 35943 ft 439 kts 310°
2026-05-05 08:09 51.09014 3.70036 35939 ft 438 kts 310°
2026-05-05 08:09 51.13230 3.63044 35931 ft 436 kts 304°
2026-05-05 08:10 51.14908 3.59077 35932 ft 431 kts 293°
2026-05-05 08:10 51.16094 3.54712 35990 ft 429 kts 283°
2026-05-05 08:10 51.17584 3.45484 36166 ft 432 kts 279°
2026-05-05 08:11 51.18287 3.40833 36365 ft 432 kts 280°
2026-05-05 08:11 51.18993 3.36182 36585 ft 431 kts 280°
2026-05-05 08:11 51.19704 3.31541 36803 ft 431 kts 281°
2026-05-05 08:11 51.20421 3.26899 36952 ft 432 kts 281°
2026-05-05 08:12 51.21142 3.22249 37116 ft 432 kts 281°
2026-05-05 08:12 51.21865 3.17597 37306 ft 432 kts 281°
2026-05-05 08:12 51.22587 3.12946 37489 ft 432 kts 281°
2026-05-05 08:12 51.23308 3.08293 37638 ft 432 kts 281°
2026-05-05 08:13 51.24028 3.03634 37790 ft 433 kts 281°
2026-05-05 08:13 51.24746 2.98977 37926 ft 432 kts 281°
2026-05-05 08:13 51.26876 2.89947 37951 ft 441 kts 298°
2026-05-05 08:14 51.30433 2.81925 37952 ft 443 kts 303°
2026-05-05 08:14 51.34089 2.73996 37944 ft 443 kts 303°
2026-05-05 08:15 51.37706 2.66043 37941 ft 442 kts 303°
2026-05-05 08:15 51.41292 2.58066 37948 ft 441 kts 302°
2026-05-05 08:16 51.44858 2.50083 37946 ft 440 kts 302°
2026-05-05 08:16 51.48412 2.42099 37956 ft 439 kts 302°
2026-05-05 08:17 51.51933 2.34166 37962 ft 439 kts 303°
2026-05-05 08:17 51.55471 2.26170 37966 ft 439 kts 303°
2026-05-05 08:18 51.59002 2.18168 37962 ft 439 kts 303°
2026-05-05 08:18 51.62524 2.10162 37979 ft 438 kts 303°
2026-05-05 08:19 51.66036 2.02152 37969 ft 438 kts 303°
2026-05-05 08:19 51.69540 1.94138 37968 ft 437 kts 303°
2026-05-05 08:20 51.73036 1.86114 37981 ft 437 kts 303°
2026-05-05 08:20 51.76528 1.78078 37980 ft 437 kts 303°
2026-05-05 08:21 51.80013 1.70030 37991 ft 437 kts 303°
2026-05-05 08:21 51.83498 1.61957 37981 ft 438 kts 303°
2026-05-05 08:22 51.86981 1.53864 37982 ft 439 kts 303°
2026-05-05 08:22 51.89876 1.47118 37982 ft 439 kts 303°
2026-05-05 08:23 51.93360 1.38977 37979 ft 440 kts 303°
2026-05-05 08:23 51.96846 1.30803 37984 ft 441 kts 303°
2026-05-05 08:24 52.00334 1.22600 37984 ft 442 kts 303°
2026-05-05 08:24 52.03823 1.14369 37994 ft 443 kts 302°
2026-05-05 08:25 52.07315 1.06102 37993 ft 444 kts 302°
2026-05-05 08:25 52.10803 0.97821 38000 ft 444 kts 303°
2026-05-05 08:26 52.14287 0.89520 37990 ft 444 kts 302°
2026-05-05 08:26 52.17747 0.81251 37993 ft 445 kts 302°
2026-05-05 08:27 52.21244 0.72867 37995 ft 444 kts 302°
2026-05-05 08:27 52.24687 0.64584 37999 ft 444 kts 302°
2026-05-05 08:28 52.28140 0.56250 37999 ft 443 kts 302°
2026-05-05 08:28 52.31583 0.47914 38010 ft 443 kts 302°
2026-05-05 08:29 52.35021 0.39561 37999 ft 442 kts 302°
2026-05-05 08:30 52.40155 0.27040 38000 ft 441 kts 302°
2026-05-05 08:30 52.43565 0.18688 37996 ft 441 kts 302°
2026-05-05 08:31 52.46967 0.10329 38003 ft 440 kts 302°
2026-05-05 08:31 52.50359 0.01966 38003 ft 440 kts 302°
2026-05-05 08:32 52.53744 -0.06406 38004 ft 440 kts 302°
2026-05-05 08:32 52.57125 -0.14798 37998 ft 440 kts 302°
2026-05-05 08:33 52.60501 -0.23203 37996 ft 441 kts 302°
2026-05-05 08:33 52.63874 -0.31628 37995 ft 441 kts 302°
2026-05-05 08:34 52.67242 -0.40070 37995 ft 441 kts 302°
2026-05-05 08:34 52.70607 -0.48530 37994 ft 442 kts 302°
2026-05-05 08:35 52.73970 -0.57016 38011 ft 442 kts 302°
2026-05-05 08:35 52.77329 -0.65520 38021 ft 442 kts 302°
2026-05-05 08:36 52.80686 -0.74047 38017 ft 443 kts 302°
2026-05-05 08:36 52.84037 -0.82587 38020 ft 443 kts 301°
2026-05-05 08:37 52.87383 -0.91144 38020 ft 443 kts 301°
2026-05-05 08:37 52.90722 -0.99710 38020 ft 443 kts 301°
2026-05-05 08:38 52.94053 -1.08287 38022 ft 443 kts 301°
2026-05-05 08:38 52.97358 -1.16825 38023 ft 443 kts 301°
2026-05-05 08:39 53.00678 -1.25432 38026 ft 443 kts 301°
2026-05-05 08:39 53.03991 -1.34047 38023 ft 443 kts 301°
2026-05-05 08:40 53.07298 -1.42678 38025 ft 442 kts 301°
2026-05-05 08:40 53.10594 -1.51310 38028 ft 442 kts 301°
2026-05-05 08:41 53.13883 -1.59955 38020 ft 442 kts 301°
2026-05-05 08:41 53.17166 -1.68612 38034 ft 441 kts 301°
2026-05-05 08:42 53.20438 -1.77268 38031 ft 441 kts 301°
2026-05-05 08:42 53.23697 -1.85933 38038 ft 440 kts 300°
2026-05-05 08:43 53.26522 -1.94979 38047 ft 439 kts 295°
2026-05-05 08:43 53.29188 -2.04154 38041 ft 438 kts 295°
2026-05-05 08:44 53.31878 -2.13285 38046 ft 437 kts 295°
2026-05-05 08:44 53.34578 -2.22393 38045 ft 436 kts 295°
2026-05-05 08:45 53.36911 -2.31736 37953 ft 436 kts 287°
2026-05-05 08:45 53.37824 -2.36584 37605 ft 435 kts 286°
2026-05-05 08:45 53.38698 -2.41406 37201 ft 430 kts 286°
2026-05-05 08:45 53.39563 -2.46169 36864 ft 424 kts 287°
2026-05-05 08:46 53.40430 -2.50870 36449 ft 421 kts 287°
2026-05-05 08:46 53.41299 -2.55519 36085 ft 416 kts 287°
2026-05-05 08:46 53.42166 -2.60124 35705 ft 412 kts 287°
2026-05-05 08:46 53.43027 -2.64687 35316 ft 409 kts 287°
2026-05-05 08:47 53.43881 -2.69216 34930 ft 406 kts 287°
2026-05-05 08:47 53.44727 -2.73716 34566 ft 403 kts 287°
2026-05-05 08:47 53.45565 -2.78184 34177 ft 400 kts 287°
2026-05-05 08:47 53.46397 -2.82627 33779 ft 398 kts 287°
2026-05-05 08:48 53.47221 -2.87041 33355 ft 395 kts 287°
2026-05-05 08:48 53.48036 -2.91424 32978 ft 392 kts 287°
2026-05-05 08:48 53.48828 -2.95721 32588 ft 389 kts 287°
2026-05-05 08:48 53.49620 -3.00049 32223 ft 386 kts 287°
2026-05-05 08:49 53.50415 -3.04399 31854 ft 383 kts 287°
2026-05-05 08:49 53.51181 -3.08607 31501 ft 380 kts 287°
2026-05-05 08:49 53.51951 -3.12841 31147 ft 378 kts 287°
2026-05-05 08:49 53.52714 -3.17043 30804 ft 375 kts 286°
2026-05-05 08:50 53.53471 -3.21222 30456 ft 372 kts 287°
2026-05-05 08:50 53.54221 -3.25372 30103 ft 370 kts 287°
2026-05-05 08:50 53.54966 -3.29502 29706 ft 368 kts 286°
2026-05-05 08:50 53.55704 -3.33600 29342 ft 364 kts 286°
2026-05-05 08:51 53.56433 -3.37654 28986 ft 360 kts 286°
2026-05-05 08:51 53.57154 -3.41674 28621 ft 357 kts 286°
2026-05-05 08:51 53.57866 -3.45656 28271 ft 354 kts 285°
2026-05-05 08:51 53.58575 -3.49598 27928 ft 350 kts 286°
2026-05-05 08:52 53.59281 -3.53504 27582 ft 348 kts 286°
2026-05-05 08:52 53.59982 -3.57380 27240 ft 345 kts 285°
2026-05-05 08:52 53.60674 -3.61228 26889 ft 342 kts 285°
2026-05-05 08:52 53.61360 -3.65052 26550 ft 340 kts 285°
2026-05-05 08:53 53.62109 -3.68817 26217 ft 338 kts 290°
2026-05-05 08:53 53.62980 -3.72478 25874 ft 336 kts 291°
2026-05-05 08:53 53.63881 -3.76096 25556 ft 334 kts 291°
2026-05-05 08:53 53.64776 -3.79696 25224 ft 332 kts 291°
2026-05-05 08:54 53.65657 -3.83281 24895 ft 330 kts 291°
2026-05-05 08:54 53.66527 -3.86858 24568 ft 329 kts 291°
2026-05-05 08:54 53.67374 -3.90375 24251 ft 328 kts 291°
2026-05-05 08:54 53.68227 -3.93928 23936 ft 326 kts 290°
2026-05-05 08:55 53.69075 -3.97468 23604 ft 325 kts 290°
2026-05-05 08:55 53.69916 -4.00996 23226 ft 324 kts 290°
2026-05-05 08:55 53.70752 -4.04507 22871 ft 322 kts 290°
2026-05-05 08:55 53.71514 -4.08038 22532 ft 318 kts 283°
2026-05-05 08:56 53.71873 -4.11683 22244 ft 313 kts 273°
2026-05-05 08:56 53.72007 -4.15324 21924 ft 310 kts 272°
2026-05-05 08:56 53.72122 -4.18946 21624 ft 307 kts 272°
2026-05-05 08:56 53.72238 -4.22536 21307 ft 305 kts 272°
2026-05-05 08:57 53.72358 -4.26103 21002 ft 303 kts 272°
2026-05-05 08:57 53.72480 -4.29644 20691 ft 301 kts 272°
2026-05-05 08:57 53.72605 -4.33160 20389 ft 299 kts 273°
2026-05-05 08:57 53.72729 -4.36655 20085 ft 297 kts 273°
2026-05-05 08:58 53.72851 -4.40134 19787 ft 296 kts 273°
2026-05-05 08:58 53.72972 -4.43606 19496 ft 297 kts 273°
2026-05-05 08:58 53.73094 -4.47100 19204 ft 299 kts 273°
2026-05-05 08:58 53.73216 -4.50649 18905 ft 306 kts 273°
2026-05-05 08:59 53.73341 -4.54266 18582 ft 309 kts 273°
2026-05-05 08:59 53.73464 -4.57884 18244 ft 308 kts 273°
2026-05-05 08:59 53.73586 -4.61487 17883 ft 307 kts 273°
2026-05-05 08:59 53.73707 -4.65071 17548 ft 305 kts 273°
2026-05-05 09:00 53.73825 -4.68630 17233 ft 302 kts 273°
2026-05-05 09:00 53.73942 -4.72157 16908 ft 300 kts 274°
2026-05-05 09:00 53.74057 -4.75658 16604 ft 298 kts 274°
2026-05-05 09:00 53.74170 -4.79140 16281 ft 296 kts 274°
2026-05-05 09:01 53.74280 -4.82591 15996 ft 294 kts 274°
2026-05-05 09:01 53.74393 -4.86029 15691 ft 292 kts 274°
2026-05-05 09:01 53.74506 -4.89440 15390 ft 290 kts 274°
2026-05-05 09:01 53.74619 -4.92837 15090 ft 289 kts 274°
2026-05-05 09:02 53.74730 -4.96217 14792 ft 288 kts 274°
2026-05-05 09:02 53.74839 -4.99536 14505 ft 286 kts 274°
2026-05-05 09:02 53.74948 -5.02890 14202 ft 285 kts 274°
2026-05-05 09:02 53.75057 -5.06272 13910 ft 284 kts 274°
2026-05-05 09:03 53.75162 -5.09601 13583 ft 283 kts 274°
2026-05-05 09:03 53.75257 -5.12916 13264 ft 282 kts 271°
2026-05-05 09:03 53.74948 -5.16179 12935 ft 283 kts 253°
2026-05-05 09:03 53.74311 -5.19269 12636 ft 282 kts 252°
2026-05-05 09:04 53.73657 -5.22383 12337 ft 281 kts 252°
2026-05-05 09:04 53.73006 -5.25500 11906 ft 284 kts 252°
2026-05-05 09:04 53.72354 -5.28662 11539 ft 285 kts 253°
2026-05-05 09:04 53.71708 -5.31811 11275 ft 282 kts 253°
2026-05-05 09:05 53.71074 -5.34919 10971 ft 278 kts 253°
2026-05-05 09:05 53.70450 -5.37983 10592 ft 275 kts 253°
2026-05-05 09:05 53.69829 -5.41033 10193 ft 274 kts 253°
2026-05-05 09:05 53.69210 -5.44069 9808 ft 273 kts 253°
2026-05-05 09:06 53.68594 -5.47083 9382 ft 271 kts 253°
2026-05-05 09:06 53.67890 -5.50022 8966 ft 272 kts 239°
2026-05-05 09:06 53.66618 -5.52387 8535 ft 273 kts 225°
2026-05-05 09:06 53.65245 -5.54581 8166 ft 271 kts 225°
2026-05-05 09:07 53.63877 -5.56759 7756 ft 270 kts 225°
2026-05-05 09:07 53.62516 -5.58934 7451 ft 269 kts 226°
2026-05-05 09:07 53.61161 -5.61104 7171 ft 269 kts 226°
2026-05-05 09:07 53.59813 -5.63271 6889 ft 268 kts 226°
2026-05-05 09:08 53.58468 -5.65432 6616 ft 266 kts 226°
2026-05-05 09:08 53.57133 -5.67580 6336 ft 265 kts 226°
2026-05-05 09:08 53.55802 -5.69721 6049 ft 264 kts 226°
2026-05-05 09:08 53.54477 -5.71854 5770 ft 263 kts 226°
2026-05-05 09:09 53.53155 -5.73979 5474 ft 263 kts 226°
2026-05-05 09:09 53.51832 -5.76104 5178 ft 262 kts 225°
2026-05-05 09:09 53.50516 -5.78218 4905 ft 261 kts 225°
2026-05-05 09:09 53.49207 -5.80318 4692 ft 257 kts 226°
2026-05-05 09:10 53.47931 -5.82363 4569 ft 250 kts 225°
2026-05-05 09:10 53.46694 -5.84345 4460 ft 242 kts 225°
2026-05-05 09:10 53.45895 -5.85626 4384 ft 237 kts 225°
2026-05-05 09:10 53.44332 -5.88126 4241 ft 227 kts 225°
2026-05-05 09:11 53.43575 -5.89333 4096 ft 226 kts 226°
2026-05-05 09:11 53.42434 -5.91156 3908 ft 227 kts 225°
2026-05-05 09:11 53.41288 -5.92985 3661 ft 227 kts 227°
2026-05-05 09:11 53.40440 -5.95141 3398 ft 221 kts 261°
2026-05-05 09:12 53.40537 -5.97595 3231 ft 207 kts 287°
2026-05-05 09:12 53.40723 -5.99942 3042 ft 199 kts 273°
2026-05-05 09:12 53.40790 -6.02177 2943 ft 186 kts 278°
2026-05-05 09:12 53.40923 -6.04302 2712 ft 182 kts 280°
2026-05-05 09:13 53.41041 -6.06383 2471 ft 177 kts 278°
2026-05-05 09:13 53.41145 -6.08380 2243 ft 167 kts 279°
2026-05-05 09:13 53.41244 -6.10270 2009 ft 161 kts 280°
2026-05-05 09:13 53.41343 -6.12144 1787 ft 162 kts 278°
2026-05-05 09:14 53.41440 -6.13989 1601 ft 153 kts 278°
2026-05-05 09:14 53.41533 -6.15744 1361 ft 150 kts 277°
2026-05-05 09:14 53.41625 -6.17477 1148 ft 149 kts 279°
2026-05-05 09:14 53.41712 -6.19216 934 ft 150 kts 277°
2026-05-05 09:15 53.41792 -6.20974 714 ft 152 kts 279°
2026-05-05 09:15 53.41894 -6.22732 534 ft 151 kts 278°
2026-05-05 09:15 53.41992 -6.24484 315 ft 151 kts 279°
2026-05-05 09:15 53.42086 -6.26192 217 ft 133 kts 278°
2026-05-05 09:16 53.42153 -6.27375 209 ft 71 kts 275°
2026-05-05 09:16 53.42200 -6.27834 211 ft 28 kts 292°
2026-05-05 09:16 53.42283 -6.28082 210 ft 20 kts 307°
2026-05-05 09:16 53.42363 -6.28051 210 ft 16 kts 93°
2026-05-05 09:17 53.42353 -6.27867 210 ft 15 kts 94°
2026-05-05 09:17 53.42343 -6.27692 212 ft 15 kts 95°
2026-05-05 09:17 53.42334 -6.27523 212 ft 14 kts 95°
2026-05-05 09:17 53.42325 -6.27362 210 ft 14 kts 96°
2026-05-05 09:18 53.42316 -6.27208 210 ft 13 kts 95°
2026-05-05 09:18 53.42308 -6.27059 210 ft 13 kts 95°
2026-05-05 09:18 53.42300 -6.26915 210 ft 13 kts 95°
2026-05-05 09:18 53.42291 -6.26752 210 ft 15 kts 95°
2026-05-05 09:19 53.42282 -6.26569 212 ft 17 kts 95°
2026-05-05 09:19 53.42271 -6.26367 213 ft 18 kts 95°
2026-05-05 09:19 53.42283 -6.26150 215 ft 20 kts 62°
2026-05-05 09:19 53.42373 -6.25971 216 ft 20 kts 45°
2026-05-05 09:20 53.42474 -6.25799 210 ft 21 kts 45°
2026-05-05 09:20 53.42574 -6.25630 213 ft 20 kts 45°
2026-05-05 09:20 53.42675 -6.25477 211 ft 19 kts 19°
2026-05-05 09:20 53.42799 -6.25546 216 ft 19 kts 336°
2026-05-05 09:21 53.42918 -6.25631 217 ft 18 kts 336°
2026-05-05 09:21 53.43032 -6.25715 214 ft 18 kts 336°
2026-05-05 09:21 53.43131 -6.25687 210 ft 17 kts 64°
2026-05-05 09:21 53.43178 -6.25509 214 ft 16 kts 66°
2026-05-05 09:22 53.43205 -6.25329 215 ft 16 kts 79°
2026-05-05 09:22 53.43205 -6.25151 210 ft 15 kts 95°
2026-05-05 09:22 53.43195 -6.24979 210 ft 14 kts 96°
2026-05-05 09:22 53.43187 -6.24825 210 ft 12 kts 95°
2026-05-05 09:23 53.43169 -6.24752 217 ft 6 kts 169°
2026-05-05 09:23 53.43126 -6.24760 213 ft 6 kts 185°
2026-05-05 09:23 53.43101 -6.24763 218 ft 2 kts 185°
2026-05-05 09:23 53.43098 -6.24764 215 ft 0 kts 185°